| time (UTC) | temp C | wind direction | speed KPH | gust KPH | rain 1hr cm | rain 24hr cm | rain mn cm | humidity % | barometer mb |
| 20260510093100 | 18 | 249 | 0.0 | 0.0 | 0.00 | 1.68 | 0.00 | 98 | 1014.5 |
| 20260510091556 | 18 | 249 | 0.0 | 1.6 | 0.00 | 1.68 | 0.00 | 98 | 1014.3 |
| 20260510090053 | 18 | 249 | 0.0 | 1.6 | 0.00 | 1.68 | 0.00 | 99 | 1014.2 |
| 20260510084551 | 18 | 249 | 0.0 | 0.0 | 0.00 | 1.68 | 0.00 | 99 | 1014.3 |
| 20260510083055 | 18 | 249 | 0.0 | 0.0 | 0.00 | 1.68 | 0.00 | 99 | 1014.3 |
| 20260510081550 | 18 | 249 | 0.0 | 1.6 | 0.00 | 1.68 | 0.00 | 99 | 1014.3 |
| 20260510080055 | 18 | 249 | 0.0 | 1.6 | 0.00 | 1.68 | 0.00 | 99 | 1014.1 |
| 20260510074546 | 18 | 249 | 0.0 | 1.6 | 0.00 | 1.68 | 0.00 | 99 | 1014.0 |
| 20260510073045 | 18 | 249 | 0.0 | 0.0 | 0.00 | 1.68 | 0.00 | 99 | 1013.8 |
| 20260510071553 | 18 | 249 | 0.0 | 0.0 | 0.00 | 1.68 | 0.00 | 99 | 1013.7 |
| 20260510070044 | 18 | 249 | 0.0 | 0.0 | 0.00 | 1.68 | 0.00 | 99 | 1013.5 |
| 20260510064543 | 18 | 249 | 0.0 | 0.0 | 0.00 | 1.68 | 0.00 | 99 | 1013.5 |
| 20260510063045 | 18 | 249 | 0.0 | 0.0 | 0.00 | 1.68 | 0.00 | 99 | 1013.6 |
| 20260510061548 | 18 | 249 | 0.0 | 1.6 | 0.00 | 1.68 | 0.00 | 99 | 1013.6 |
| 20260510060041 | 18 | 249 | 0.0 | 0.0 | 0.00 | 1.68 | 0.00 | 99 | 1013.6 |
| 20260510054542 | 18 | 249 | 0.0 | 0.0 | 0.00 | 1.68 | 0.00 | 99 | 1013.5 |
| 20260510053038 | 18 | 249 | 0.0 | 0.0 | 0.00 | 1.68 | 0.00 | 98 | 1013.5 |
| 20260510051537 | 18 | 249 | 0.0 | 0.0 | 0.00 | 1.68 | 0.00 | 98 | 1013.7 |
| 20260510050035 | 18 | 249 | 0.0 | 0.0 | 0.00 | 1.68 | 0.00 | 98 | 1014.0 |
| 20260510044536 | 18 | 249 | 0.0 | 0.0 | 0.00 | 1.68 | 1.68 | 98 | 1014.3 |
| 20260510043034 | 18 | 249 | 0.0 | 0.0 | 0.00 | 1.68 | 1.68 | 98 | 1014.3 |
| 20260510041533 | 18 | 249 | 0.0 | 1.6 | 0.00 | 1.68 | 1.68 | 98 | 1013.7 |
| 20260510040035 | 18 | 272 | 0.0 | 0.0 | 0.00 | 1.68 | 1.68 | 98 | 1013.5 |
| 20260510034538 | 18 | 272 | 0.0 | 0.0 | 0.00 | 1.68 | 1.68 | 98 | 1013.9 |
| 20260510033034 | 18 | 272 | 0.0 | 0.0 | 0.00 | 1.68 | 1.68 | 97 | 1013.9 |
| 20260510031543 | 18 | 272 | 0.0 | 0.0 | 0.00 | 1.68 | 1.68 | 97 | 1013.9 |
| 20260510030031 | 18 | 272 | 0.0 | 0.0 | 0.00 | 1.68 | 1.68 | 97 | 1014.4 |
| 20260510024541 | 18 | 272 | 0.0 | 1.6 | 0.00 | 1.68 | 1.68 | 97 | 1014.0 |
| 20260510023028 | 18 | 271 | 0.0 | 0.0 | 0.00 | 1.68 | 1.68 | 97 | 1013.5 |
| 20260510021527 | 18 | 271 | 0.0 | 0.0 | 0.00 | 1.68 | 1.68 | 97 | 1013.5 |
| 20260510020129 | 18 | 272 | 0.0 | 1.6 | 0.00 | 1.68 | 1.68 | 97 | 1013.4 |
| 20260510014526 | 18 | 271 | 0.0 | 0.0 | 0.00 | 1.68 | 1.68 | 97 | 1013.5 |
| 20260510013025 | 18 | 218 | 0.0 | 3.2 | 0.00 | 1.68 | 1.68 | 97 | 1013.7 |
| 20260510011534 | 18 | 253 | 0.0 | 0.0 | 0.00 | 1.68 | 1.68 | 97 | 1013.5 |
| 20260510010025 | 18 | 255 | 0.0 | 0.0 | 0.00 | 1.68 | 1.68 | 97 | 1013.2 |
| 20260510004524 | 18 | 255 | 0.0 | 0.0 | 0.00 | 1.68 | 1.68 | 96 | 1012.9 |
| 20260510003047 | 19 | 255 | 0.0 | 0.0 | 0.00 | 1.68 | 1.68 | 96 | 1012.7 |
| 20260510001528 | 19 | 255 | 0.0 | 0.0 | 0.00 | 1.68 | 1.68 | 96 | 1012.6 |
| 20260510000023 | 19 | 255 | 0.0 | 0.0 | 0.00 | 1.68 | 1.68 | 96 | 1012.7 |
| 20260509234528 | 19 | 255 | 0.0 | 0.0 | 0.00 | 1.68 | 1.68 | 96 | 1012.4 |
| 20260509233023 | 19 | 255 | 0.0 | 0.0 | 0.00 | 1.68 | 1.68 | 96 | 1012.6 |
| 20260509231529 | 19 | 255 | 0.0 | 1.6 | 0.00 | 1.68 | 1.68 | 96 | 1012.3 |
| 20260509230028 | 19 | 260 | 0.0 | 0.0 | 0.00 | 1.68 | 1.68 | 96 | 1012.3 |
| 20260509224518 | 19 | 260 | 0.0 | 1.6 | 0.00 | 1.68 | 1.68 | 95 | 1012.2 |
| 20260509223018 | 19 | 230 | 0.0 | 0.0 | 0.00 | 1.68 | 1.68 | 94 | 1010.8 |
| 20260509221516 | 19 | 230 | 0.0 | 4.8 | 0.00 | 1.68 | 1.68 | 94 | 1012.0 |
| 20260509220016 | 19 | 240 | 0.0 | 0.0 | 0.00 | 1.68 | 1.68 | 93 | 1012.0 |
| 20260509214515 | 20 | 241 | 0.0 | 3.2 | 0.00 | 1.68 | 1.68 | 93 | 1012.0 |
| 20260509213014 | 20 | 239 | 0.0 | 1.6 | 0.00 | 1.68 | 1.68 | 93 | 1012.0 |
| 20260509211514 | 20 | 241 | 0.0 | 4.8 | 0.00 | 1.68 | 1.68 | 93 | 1012.1 |
| 20260509210016 | 20 | 266 | 0.0 | 1.6 | 0.00 | 1.68 | 1.68 | 93 | 1012.2 |
| 20260509204512 | 20 | 245 | 0.0 | 3.2 | 0.00 | 1.70 | 1.68 | 92 | 1012.0 |
| 20260509203017 | 20 | 238 | 0.0 | 0.0 | 0.00 | 1.70 | 1.68 | 92 | 1012.1 |
| 20260509201512 | 20 | 239 | 0.0 | 4.8 | 0.00 | 1.70 | 1.68 | 91 | 1012.3 |
| 20260509200013 | 21 | 237 | 0.0 | 6.4 | 0.00 | 1.70 | 1.68 | 91 | 1012.8 |
| 20260509194513 | 21 | 213 | 0.0 | 1.6 | 0.00 | 2.06 | 1.68 | 91 | 1012.6 |
| 20260509193010 | 21 | 248 | 0.0 | 3.2 | 0.00 | 2.06 | 1.68 | 90 | 1012.9 |
| 20260509191509 | 21 | 222 | 0.0 | 4.8 | 0.00 | 2.06 | 1.68 | 89 | 1012.7 |
| 20260509190014 | 22 | 248 | 0.0 | 6.4 | 0.00 | 2.06 | 1.68 | 89 | 1012.9 |
| 20260509184507 | 22 | 225 | 1.6 | 8.0 | 0.00 | 2.36 | 1.68 | 86 | 1012.5 |
| 20260509183018 | 23 | 236 | 0.0 | 4.8 | 0.00 | 2.36 | 1.68 | 87 | 1012.4 |
| 20260509181504 | 23 | 230 | 0.0 | 1.6 | 0.00 | 2.36 | 1.68 | 87 | 1012.4 |
| 20260509180002 | 23 | 239 | 0.0 | 3.2 | 0.00 | 2.36 | 1.68 | 89 | 1012.5 |
| 20260509174559 | 22 | 256 | 0.0 | 3.2 | 0.00 | 2.54 | 1.68 | 87 | 1012.4 |
| 20260509173104 | 22 | 243 | 0.0 | 3.2 | 0.00 | 2.54 | 1.68 | 87 | 1012.4 |
| 20260509171558 | 22 | 214 | 0.0 | 4.8 | 0.00 | 2.54 | 1.68 | 91 | 1012.6 |
| 20260509170054 | 22 | 250 | 0.0 | 1.6 | 0.00 | 2.54 | 1.68 | 91 | 1013.0 |
| 20260509164558 | 22 | 279 | 0.0 | 4.8 | 0.00 | 3.48 | 1.68 | 92 | 1013.0 |
| 20260509163053 | 21 | 30 | 1.6 | 6.4 | 0.00 | 3.48 | 1.68 | 90 | 1013.1 |
| 20260509161549 | 22 | 240 | 0.0 | 3.2 | 0.00 | 3.48 | 1.68 | 91 | 1013.4 |
| 20260509160047 | 21 | 329 | 0.0 | 4.8 | 0.00 | 3.48 | 1.68 | 92 | 1013.6 |
| 20260509154551 | 21 | 218 | 0.0 | 0.0 | 0.00 | 6.60 | 1.68 | 96 | 1013.7 |
| 20260509153039 | 20 | 130 | 0.0 | 3.2 | 0.00 | 6.60 | 1.68 | 98 | 1013.4 |
| 20260509151539 | 20 | 113 | 0.0 | 3.2 | 0.00 | 6.60 | 1.68 | 100 | 1013.2 |
| 20260509150036 | 19 | 81 | 0.0 | 3.2 | 0.00 | 6.60 | 1.68 | 100 | 1013.2 |
| 20260509144537 | 18 | 312 | 0.0 | 0.0 | 0.00 | 6.68 | 1.68 | 100 | 1013.4 |
| 20260509143033 | 18 | 295 | 0.0 | 0.0 | 0.00 | 6.68 | 1.68 | 100 | 1013.5 |
| 20260509141531 | 18 | 294 | 0.0 | 1.6 | 0.00 | 6.68 | 1.68 | 100 | 1013.7 |
| 20260509140029 | 18 | 234 | 0.0 | 1.6 | 0.00 | 6.68 | 1.68 | 100 | 1013.3 |
| 20260509134527 | 18 | 234 | 0.0 | 1.6 | 0.03 | 6.68 | 1.68 | 100 | 1013.0 |
| 20260509133028 | 17 | 230 | 0.0 | 0.0 | 0.03 | 6.68 | 1.68 | 100 | 1012.6 |
| 20260509131526 | 17 | 319 | 0.0 | 1.6 | 0.05 | 6.68 | 1.68 | 100 | 1011.2 |
| 20260509130026 | 17 | 236 | 0.0 | 0.0 | 0.08 | 6.68 | 1.68 | 100 | 1011.3 |
| 20260509124524 | 17 | 238 | 0.0 | 1.6 | 0.13 | 6.65 | 1.65 | 100 | 1011.3 |
| 20260509123025 | 17 | 239 | 0.0 | 1.6 | 0.18 | 6.65 | 1.65 | 100 | 1012.2 |
| 20260509121527 | 17 | 309 | 0.0 | 6.4 | 0.20 | 6.63 | 1.63 | 100 | 1011.6 |
| 20260509120024 | 17 | 61 | 1.6 | 9.7 | 0.46 | 6.60 | 1.60 | 100 | 1012.2 |
| 20260509114522 | 18 | 75 | 3.2 | 12.9 | 0.76 | 6.53 | 1.52 | 100 | 1012.8 |
| 20260509113022 | 18 | 210 | 0.0 | 3.2 | 0.94 | 6.45 | 1.45 | 100 | 1012.1 |
| 20260509111521 | 18 | 259 | 0.0 | 0.0 | 1.30 | 6.40 | 1.42 | 100 | 1011.6 |
| 20260509110020 | 18 | 247 | 0.0 | 3.2 | 1.04 | 6.10 | 1.09 | 100 | 1012.2 |
| 20260509104532 | 18 | 256 | 0.0 | 0.0 | 0.71 | 5.71 | 0.71 | 100 | 1010.6 |
| 20260509103017 | 18 | 268 | 0.0 | 3.2 | 0.53 | 5.54 | 0.53 | 100 | 1010.2 |
| 20260509101516 | 17 | 275 | 0.0 | 1.6 | 0.13 | 5.13 | 0.13 | 100 | 1010.6 |
| 20260509100015 | 17 | 277 | 0.0 | 0.0 | 0.05 | 5.05 | 0.05 | 100 | 1010.4 |
| 20260509094514 | 17 | 277 | 0.0 | 0.0 | 0.03 | 5.03 | 0.03 | 100 | 1010.3 |